Weather History for Fryeburg, ME

Change the Weather History Date:

Sunday, April 27, 2014

  Actual Average Record
Temperature  
Mean Temperature 44 °F -  
Max Temperature 55 °F 60 °F 78 °F (2011)
Min Temperature 37 °F 31 °F 23 °F (2001)
Degree Days  
Heating Degree Days 20    
Moisture  
Dew Point 37 °F    
Average Humidity 81    
Maximum Humidity 100    
Minimum Humidity 50    
Precipitation  
Precipitation 0.03 in - - ()
Sea Level Pressure  
Sea Level Pressure 29.94 in    
Wind  
Wind Speed 2 mph (NNW)    
Max Wind Speed 9 mph    
Max Gust Speed -    
Visibility 10 miles    
Events Rain    
Averages and records for this station are not official NWS values.
T = Trace of Precipitation, MM = Missing Value Source: NWS Daily Summary

Daily Weather History Graph

Daily Weather History Graph

Search for Another Location

Airport:

Trip Planner

Search our weather history database for the weather conditions in past years. The results will help you decide how hot, cold, wet, or windy it might be!

Date:

Astronomy

Apr. 27, 2014 Rise Set
Actual Time 5:41 AM EDT 7:42 PM EDT
Civil Twilight 5:10 AM EDT 8:13 PM EDT
Nautical Twilight 4:31 AM EDT 8:52 PM EDT
Astronomical Twilight 3:50 AM EDT 9:34 PM EDT
Moon 4:44 AM EDT (4/27) 6:09 PM EDT (4/27)
Length of Visible Light 15h 03m
Length of Day
14h 00m
Waning Crescent, 3% of the Moon is Illuminated
Apr 27
Waning Crescent
Apr 29
New
May 6
First Quarter
May 14
Full
May 21
Last Quarter

Hourly Weather History & Observations

Time (EDT) Temp. Windchill Dew Point Humidity Pressure Visibility Wind Dir Wind Speed Gust Speed Precip Events Conditions
12:54 AM 37.9 °F - 37.0 °F 97% 29.88 in 10.0 mi Calm Calm - N/A   Overcast
1:41 AM 37.9 °F - 37.0 °F 97% 29.86 in 10.0 mi Calm Calm - N/A   Overcast
1:54 AM 37.9 °F - 37.0 °F 97% 29.88 in 10.0 mi Calm Calm - N/A   Overcast
2:50 AM 37.4 °F - 37.4 °F 100% 29.86 in 10.0 mi Calm Calm - N/A   Overcast
2:54 AM 37.9 °F - 37.0 °F 97% 29.88 in 10.0 mi Calm Calm - N/A   Overcast
3:08 AM 37.9 °F - 37.0 °F 97% 29.87 in 7.0 mi Calm Calm - N/A   Overcast
3:54 AM 37.9 °F - 37.0 °F 97% 29.88 in 8.0 mi Calm Calm - 0.00 in Rain Light Rain
4:54 AM 37.9 °F - 37.0 °F 97% 29.88 in 10.0 mi Calm Calm - 0.01 in   Overcast
5:54 AM 37.9 °F - 37.0 °F 97% 29.90 in 10.0 mi Calm Calm - N/A   Overcast
6:54 AM 39.0 °F - 37.0 °F 93% 29.91 in 10.0 mi Calm Calm - N/A   Overcast
7:54 AM 39.9 °F - 37.9 °F 93% 29.93 in 10.0 mi Calm Calm - N/A   Overcast
8:30 AM 39.9 °F - 37.0 °F 89% 29.92 in 10.0 mi Calm Calm - N/A   Overcast
8:40 AM 39.9 °F - 37.0 °F 89% 29.92 in 10.0 mi Calm Calm - N/A   Overcast
8:54 AM 39.9 °F - 37.0 °F 89% 29.94 in 10.0 mi Calm Calm - N/A   Overcast
9:04 AM 39.9 °F - 37.0 °F 89% 29.93 in 10.0 mi Calm Calm - N/A   Overcast
9:54 AM 41.0 °F - 37.9 °F 89% 29.96 in 10.0 mi Calm Calm - N/A   Overcast
10:30 AM 42.1 °F 38.4 °F 37.9 °F 85% 29.95 in 9.0 mi North 5.8 mph - N/A   Overcast
10:38 AM 43.0 °F 40.3 °F 39.0 °F 86% 29.95 in 10.0 mi NNE 4.6 mph - N/A   Overcast
10:54 AM 44.1 °F 42.5 °F 39.9 °F 85% 29.97 in 10.0 mi Variable 3.5 mph - 0.00 in   Overcast
11:54 AM 48.0 °F - 37.0 °F 66% 29.96 in 10.0 mi NE 8.1 mph - N/A   Overcast
12:54 PM 48.9 °F - 36.0 °F 61% 29.96 in 10.0 mi North 8.1 mph - N/A   Mostly Cloudy
1:28 PM 50.0 °F - 36.0 °F 59% 29.94 in 10.0 mi Variable 5.8 mph - N/A   Mostly Cloudy
1:54 PM 52.0 °F - 36.0 °F 54% 29.95 in 10.0 mi North - - N/A   Overcast
2:54 PM 52.0 °F - 34.0 °F 50% 29.95 in 10.0 mi North 9.2 mph - 0.00 in   Mostly Cloudy
4:54 PM 46.9 °F - 41.0 °F 80% 29.98 in 10.0 mi NE 4.6 mph - 0.02 in   Overcast
5:54 PM 48.9 °F - 37.0 °F 64% 29.99 in 10.0 mi NNW 5.8 mph - 0.00 in   Overcast
6:54 PM 48.9 °F - 37.0 °F 64% 30.01 in 10.0 mi NNW 8.1 mph - N/A   Mostly Cloudy
7:54 PM 46.0 °F 42.5 °F 35.1 °F 66% 30.02 in 10.0 mi NNW 6.9 mph - N/A   Clear
8:54 PM 44.1 °F 40.8 °F 35.1 °F 71% 30.04 in 10.0 mi NNW 5.8 mph - N/A   Clear
9:54 PM 43.0 °F 39.5 °F 33.1 °F 68% 30.05 in 10.0 mi NW 5.8 mph - N/A   Clear
10:54 PM 42.1 °F 39.2 °F 30.9 °F 65% 30.04 in 10.0 mi NW 4.6 mph - N/A   Clear
11:54 PM 42.1 °F 38.4 °F 30.9 °F 65% 30.04 in 10.0 mi NW 5.8 mph - N/A   Clear